<?xml version='1.0' encoding='UTF-8'?>
<gpx xmlns="http://www.topografix.com/GPX/1/1" creator="www.balnam.be" version="1.1" xmlns:xsi="http://www.w3.org/2001/XMLSchema-instance" xsi:schemaLocation="http://www.topografix.com/GPX/1/1 http://www.topografix.com/GPX/1/1/gpx.xsd">
<trk>
<name>ljula1</name>
<cmt>v</cmt>
<desc>Lantin Chemin n°1 Chaussée de Liège</desc>
<link href="https://chemins.be/lantin/chemin/1"/><trkseg>
<trkpt lat="50.694127" lon="5.506602"><time>2026-05-02T19:31:42Z</time></trkpt>
<trkpt lat="50.691776" lon="5.510549"><time>2026-05-02T19:41:42Z</time></trkpt>
<trkpt lat="50.691575" lon="5.510912"><time>2026-05-02T19:51:42Z</time></trkpt>
<trkpt lat="50.690983" lon="5.511620"><time>2026-05-02T20:01:42Z</time></trkpt>
<trkpt lat="50.690371" lon="5.512638"><time>2026-05-02T20:11:42Z</time></trkpt>
</trkseg>
</trk>
<trk>
<name>ljula12</name>
<cmt>d</cmt>
<desc>Lantin Sentier n°12 </desc>
<link href="https://chemins.be/lantin/sentier/12"/><trkseg>
<trkpt lat="50.687403" lon="5.518061"><time>2026-05-02T19:31:42Z</time></trkpt>
<trkpt lat="50.688213" lon="5.519272"><time>2026-05-02T19:41:42Z</time></trkpt>
<trkpt lat="50.691638" lon="5.520636"><time>2026-05-02T19:51:42Z</time></trkpt>
</trkseg>
</trk>
<trk>
<name>ljula13</name>
<cmt>q</cmt>
<desc>Lantin Sentier n°13 </desc>
<link href="https://chemins.be/lantin/sentier/13"/><trkseg>
<trkpt lat="50.684484" lon="5.525204"><time>2026-05-02T19:31:42Z</time></trkpt>
<trkpt lat="50.685017" lon="5.525840"><time>2026-05-02T19:41:42Z</time></trkpt>
<trkpt lat="50.685400" lon="5.527151"><time>2026-05-02T19:51:42Z</time></trkpt>
<trkpt lat="50.685353" lon="5.527377"><time>2026-05-02T20:01:42Z</time></trkpt>
<trkpt lat="50.685665" lon="5.530271"><time>2026-05-02T20:11:42Z</time></trkpt>
<trkpt lat="50.686117" lon="5.531910"><time>2026-05-02T20:21:42Z</time></trkpt>
<trkpt lat="50.686787" lon="5.533243"><time>2026-05-02T20:31:42Z</time></trkpt>
<trkpt lat="50.687927" lon="5.536116"><time>2026-05-02T20:41:42Z</time></trkpt>
</trkseg>
</trk>
<trk>
<name>ljula3</name>
<cmt>q</cmt>
<desc>Lantin Chemin n°3 </desc>
<link href="https://chemins.be/lantin/chemin/3"/><trkseg>
<trkpt lat="50.694797" lon="5.527723"><time>2026-05-02T19:31:42Z</time></trkpt>
<trkpt lat="50.696668" lon="5.527752"><time>2026-05-02T19:41:42Z</time></trkpt>
<trkpt lat="50.698943" lon="5.528617"><time>2026-05-02T19:51:42Z</time></trkpt>
</trkseg>
</trk>
<trk>
<name>ljula4</name>
<cmt>v</cmt>
<desc>Lantin Chemin n°4 </desc>
<link href="https://chemins.be/lantin/chemin/4"/><trkseg>
<trkpt lat="50.686838" lon="5.527893"><time>2026-05-02T19:31:42Z</time></trkpt>
<trkpt lat="50.684731" lon="5.532163"><time>2026-05-02T19:41:42Z</time></trkpt>
<trkpt lat="50.684316" lon="5.534631"><time>2026-05-02T19:51:42Z</time></trkpt>
</trkseg>
</trk>
<trk>
<name>ljula5</name>
<cmt>s</cmt>
<desc>Lantin Chemin n°5 </desc>
<link href="https://chemins.be/lantin/chemin/5"/><trkseg>
<trkpt lat="50.694234" lon="5.514561"><time>2026-05-02T19:31:42Z</time></trkpt>
<trkpt lat="50.696363" lon="5.509468"><time>2026-05-02T19:41:42Z</time></trkpt>
<trkpt lat="50.697013" lon="5.506259"><time>2026-05-02T19:51:42Z</time></trkpt>
<trkpt lat="50.697040" lon="5.504950"><time>2026-05-02T20:01:42Z</time></trkpt>
</trkseg>
</trk>
<trk>
<name>ljula7</name>
<cmt>s</cmt>
<desc>Lantin Chemin n°7 </desc>
<link href="https://chemins.be/lantin/chemin/7"/><trkseg>
<trkpt lat="50.691602" lon="5.520645"><time>2026-05-02T19:31:42Z</time></trkpt>
<trkpt lat="50.692708" lon="5.520865"><time>2026-05-02T19:41:42Z</time></trkpt>
</trkseg></trk>
<trk>
<name>ljula7</name>
<cmt>d</cmt>
<desc>Lantin Chemin n°7 </desc>
<link href="https://chemins.be/lantin/chemin/7"/><trkseg>
<trkpt lat="50.692708" lon="5.520865"><time>2026-05-02T19:41:42Z</time></trkpt>
<trkpt lat="50.693042" lon="5.520743"><time>2026-05-02T19:51:42Z</time></trkpt>
<trkpt lat="50.702768" lon="5.518552"><time>2026-05-02T20:01:42Z</time></trkpt>
</trkseg>
</trk>
<trk>
<name>ljula8</name>
<cmt>v</cmt>
<desc>Lantin Chemin n°8 </desc>
<link href="https://chemins.be/lantin/chemin/8"/><trkseg>
<trkpt lat="50.687303" lon="5.517929"><time>2026-05-02T19:31:42Z</time></trkpt>
<trkpt lat="50.687140" lon="5.516835"><time>2026-05-02T19:41:42Z</time></trkpt>
</trkseg>
</trk>
<trk>
<name>ljula9</name>
<cmt>r</cmt>
<desc>Lantin Sentier n°9 </desc>
<link href="https://chemins.be/lantin/sentier/9"/><trkseg>
<trkpt lat="50.686777" lon="5.527947"><time>2026-05-02T19:31:42Z</time></trkpt>
<trkpt lat="50.685900" lon="5.527765"><time>2026-05-02T19:41:42Z</time></trkpt>
<trkpt lat="50.685309" lon="5.527754"><time>2026-05-02T19:51:42Z</time></trkpt>
</trkseg></trk>
<trk>
<name>ljula9</name>
<cmt>s</cmt>
<desc>Lantin Sentier n°9 </desc>
<link href="https://chemins.be/lantin/sentier/9"/><trkseg>
<trkpt lat="50.685309" lon="5.527754"><time>2026-05-02T19:51:42Z</time></trkpt>
<trkpt lat="50.684058" lon="5.528655"><time>2026-05-02T20:01:42Z</time></trkpt>
<trkpt lat="50.682896" lon="5.528891"><time>2026-05-02T20:11:42Z</time></trkpt>
</trkseg>
</trk>
<trk>
<name>ljulai1</name>
<cmt>v</cmt>
<desc>Lantin Chemin n°i1 </desc>
<link href="https://chemins.be/lantin/chemin/i1"/><trkseg>
<trkpt lat="50.693545" lon="5.524186"><time>2026-05-02T19:31:42Z</time></trkpt>
<trkpt lat="50.694157" lon="5.523972"><time>2026-05-02T19:41:42Z</time></trkpt>
<trkpt lat="50.696366" lon="5.524594"><time>2026-05-02T19:51:42Z</time></trkpt>
<trkpt lat="50.698119" lon="5.524637"><time>2026-05-02T20:01:42Z</time></trkpt>
<trkpt lat="50.701646" lon="5.522717"><time>2026-05-02T20:11:42Z</time></trkpt>
</trkseg>
</trk>
<trk>
<name>ljulai2</name>
<cmt>v</cmt>
<desc>Lantin Chemin n°i2 </desc>
<link href="https://chemins.be/lantin/chemin/i2"/><trkseg>
<trkpt lat="50.694782" lon="5.527791"><time>2026-05-02T19:31:42Z</time></trkpt>
<trkpt lat="50.696434" lon="5.525334"><time>2026-05-02T19:41:42Z</time></trkpt>
<trkpt lat="50.696441" lon="5.524991"><time>2026-05-02T19:51:42Z</time></trkpt>
<trkpt lat="50.696284" lon="5.524605"><time>2026-05-02T20:01:42Z</time></trkpt>
</trkseg>
</trk>
</gpx>